Location: Dos Palmas
(32.4468°N, 116.8732°W)
Time: 05:31:27
(UTC+00:00)

Cosmos 2369 Rocket - Pass Details

Date: 20 June 2021
Orbit: 827 x 854 km, 71.0° (Epoch: 29 July)

Event Time Altitude Azimuth Distance (km) Brightness Sun altitude
Rises 09:00:58 0° 338° (NNW) 3,425 6.0 -31.5°
Reaches altitude 10° 09:03:26 10° 337° (NNW) 2,485 5.1 -31.4°
Enters shadow 09:07:40 51° 326° (NNW) 1,061 2.8 -31.1°
